Historique des stations

Station météo de Lucay-le-Mâle

Altitude de la station : 128 m







Données météorologiques pour le 05/12/2021
Date
Heure
Températures Humidité Point de rosée Vitesse
du vent
Direction Rafales Windchill Pression Pluviométrie
Cumul
Date
Heure
Températures Humidité Point de rosée Vitesse
du vent
Direction Rafales Windchill Pression Pluviométrie
Cumul
05/12/2021 11:104.1 °C90 %2.6 °C11 km/hO21 km/h1.11008 hPa0.2 mm
05/12/2021 11:003.7 °C91 %2.4 °C11 km/hO21 km/h0.61008 hPa0.2 mm
05/12/2021 10:403.3 °C91 %2.0 °C11 km/hO16 km/h0.71008 hPa0.2 mm
05/12/2021 10:303.2 °C91 %1.9 °C11 km/hO19 km/h0.11008 hPa0.2 mm
05/12/2021 10:103.0 °C92 %1.8 °C10 km/hO21 km/h-0.21008 hPa0.2 mm
05/12/2021 10:002.8 °C92 %1.6 °C9 km/hO18 km/h-0.31008 hPa0.2 mm
05/12/2021 09:402.6 °C92 %1.4 °C8 km/hO15 km/h-0.11008 hPa0.2 mm
05/12/2021 09:302.3 °C92 %1.2 °C7 km/hO15 km/h-0.41008 hPa0.2 mm
05/12/2021 09:102.2 °C93 %1.2 °C6 km/hO13 km/h2.21008 hPa0.2 mm
05/12/2021 09:002.2 °C93 %1.2 °C7 km/hO11 km/h2.21007 hPa0.2 mm
05/12/2021 08:402.2 °C92 %1.0 °C7 km/hO13 km/h2.21007 hPa0.2 mm
05/12/2021 08:302.3 °C92 %1.1 °C7 km/hONO11 km/h2.31007 hPa0.2 mm
05/12/2021 08:102.4 °C92 %1.3 °C7 km/hO13 km/h0.01007 hPa0.2 mm
05/12/2021 08:002.7 °C92 %1.5 °C6 km/hO21 km/h0.31007 hPa0.2 mm
05/12/2021 07:402.8 °C92 %1.7 °C6 km/hONO11 km/h2.81007 hPa0.0 mm
05/12/2021 07:303.1 °C91 %1.8 °C6 km/hO15 km/h3.11007 hPa0.0 mm
05/12/2021 07:103.2 °C91 %1.8 °C6 km/hONO16 km/h3.21007 hPa0.0 mm
05/12/2021 07:003.3 °C91 %2.0 °C6 km/hO10 km/h3.31007 hPa0.0 mm
05/12/2021 06:403.6 °C91 %2.2 °C6 km/hONO13 km/h3.61007 hPa0.0 mm
05/12/2021 06:303.6 °C91 %2.3 °C6 km/h11 km/h3.61006 hPa0.0 mm
05/12/2021 06:103.7 °C91 %2.3 °C6 km/hONO16 km/h3.71006 hPa0.0 mm
05/12/2021 06:003.7 °C92 %2.5 °C6 km/hO15 km/h3.71006 hPa0.0 mm
05/12/2021 05:403.8 °C91 %2.4 °C7 km/hO13 km/h3.81006 hPa0.0 mm
05/12/2021 05:303.8 °C91 %2.5 °C7 km/hO11 km/h3.81006 hPa0.0 mm
05/12/2021 05:103.9 °C91 %2.6 °C8 km/hO13 km/h3.91006 hPa0.0 mm
05/12/2021 05:003.9 °C91 %2.6 °C10 km/hO16 km/h1.51006 hPa0.0 mm
05/12/2021 04:403.8 °C91 %2.5 °C10 km/hO13 km/h1.71006 hPa0.0 mm
05/12/2021 04:303.8 °C91 %2.4 °C11 km/hO23 km/h0.81006 hPa0.0 mm
05/12/2021 04:103.7 °C91 %2.4 °C11 km/h23 km/h0.71006 hPa0.0 mm
05/12/2021 04:00---11 km/h---0 hPa0.0 mm
05/12/2021 03:103.8 °C91 %2.4 °C11 km/hOSO18 km/h0.91007 hPa0.0 mm
05/12/2021 03:003.4 °C92 %2.3 °C11 km/hOSO18 km/h0.11007 hPa0.0 mm
05/12/2021 02:403.2 °C92 %2.0 °C11 km/hOSO18 km/h0.21007 hPa0.0 mm
05/12/2021 02:303.4 °C91 %2.1 °C11 km/hOSO19 km/h0.21007 hPa0.0 mm
05/12/2021 02:103.3 °C92 %2.1 °C11 km/hOSO19 km/h0.41007 hPa0.0 mm
05/12/2021 02:003.3 °C91 %2.0 °C12 km/hOSO16 km/h0.01007 hPa0.0 mm
05/12/2021 01:403.3 °C92 %2.2 °C12 km/hOSO18 km/h0.11007 hPa0.0 mm
05/12/2021 01:303.3 °C91 %2.0 °C12 km/hOSO19 km/h0.11008 hPa0.0 mm
05/12/2021 01:103.4 °C91 %2.1 °C12 km/hOSO16 km/h0.31008 hPa0.0 mm
05/12/2021 01:00-------0 hPa-
05/12/2021 00:303.6 °C91 %2.3 °C12 km/hOSO19 km/h0.41008 hPa6.2 mm
05/12/2021 00:103.6 °C91 %2.2 °C12 km/hOSO18 km/h0.61009 hPa6.2 mm
05/12/2021 00:003.6 °C91 %2.2 °C12 km/hOSO18 km/h0.51009 hPa6.2 mm


Minima :

Température : 2.2 °C
Humidité : 90 %
Point de rosée : 1.0 °C
Vent moyen : 6 km/h
Windchill : -0.4
Pression atm. : 0 hPa
Maxima :

Température : 4.1 °C
Humidité : 93 %
Point de rosée : 2.6 °C
Vent moyen : 12 km/h
Windchill : 3.9
Pression atm. : 1009 hPa
Rafales max : 23 km/h
Cumul de pluie sur 24H : 6.2 mm

Lucay-le-Mâle est une commune du département Indre (36).
La station météorologique du réseau de l'association la plus proche de Lucay-le-Mâle est celle de Villegouin



Icône Facebook Association Météo Centre Icône Twitter Association Météo Centre Icône Chaîne Youtube Association Météo Centre Icône contact Association Météo Centre Icône Insta Association Météo Centre